DECAYED

NOAA 17 DEB, 48750 (Decayed)

Orbit data source: Space-Track

NOAA 17 DEB, 48750 was space debris in SSO originally from a launch on Mon, 24 Jun 2002 UTC launched from the Air Force Western Test Range (AFWTR). Debris objects in space refer to the collection of defunct objects orbiting the Earth. Examples of debris include non-operational satellites, rocket bodies, and fragments generated from explosions, collisions, or faulty payload assembly.

Not visible in the next 10 days
Identifier
48750, 2002-032CK
Orbit
Decayed
Country
Flag of USUS
Related business
Manufacturer
Unknown
Mission
Decayed spacecraft
Bus & Motor
Unknown
Mass
Unknown
Launch date (UTC)
2002-06-24 (24 years ago)
Launch vehicle
Unknown
Launch site
Air Force Western Test Range (AFWTR)
Object type
Payload
Rocket body
Debris
Shape & HBR
Unknown shape, 0.1 m
Radar Cross Section
Small (<0.1 m²)

Expand to show TLE details & history
Last TLE update: 10 months ago

TLE from 10 months ago
0 NOAA 17 DEB
1 48750U 02032CK  25243.45615018  .00474508  00000-0  15715-1 0  9995
2 48750  98.9273 314.6990 0018895 217.5513 142.4404 15.29106170234269
Epoch: 2025-08-31T10:56Z
TLE epoch observation values (Epoch: 2025-08-31T10:56:51.375Z)
Latitude
-0.00001°
Longitude
170.6091°
Altitude
491.819 km
Speed
7.613 km/s
True Right ascension
20h 58m 47s
True Declination
0° 00' 00"
Sunlit
Object was in full shadow at epoch
Visualization orbit readout
Latitude
Unknown
Longitude
Unknown
Altitude
Unknown
Speed
Unknown
Apparent Right ascension
Unknown
Apparent Declination
Unknown
Sunlit
N/A
Visualization observer readout
Local Sidereal Time
21:31:49
Azimuth
Unknown
Elevation
Unknown
Doppler factor
Unknown
Orbital elements
Apogee altitude
488.459 km
Perigee altitude
462.559 km
Semi-major axis
6,853.646 km
Eccentricity
0.00189
Inclination
98.9273°
RAAN
314.699°
Arg. of periapsis
217.5513°
True anomaly
142.57214°
Mean anomaly
142.4404°
Eccentric anomaly
142.5063°
Mean motion
3.82526 °/min
Orbital period
94.11 mins
BSTAR
0.015715
Loading maneuver chart data...
Computing Atmospheric mass density...

Documentation

Showing up to 5 results
|